Lapse_Rate
4.9 5.1 4.9 4.9 5.0 5.0 4.8 4.6 4.3 4.2 3.7 3.8 4.3 4.2 5.1 5.5 5.9 6.5 7.0 7.4 7.2 7.2 7.3 7.2 7.1 7.1 7.1 7.5 7.2 7.1 7.4 7.1 6.9 6.7 6.8 6.9 7.0 6.6 6.3 6.3 6.1 6.5 6.6 2.7
5.1 5.0 4.9 5.0 4.9 4.9 4.7 4.4 4.3 4.0 3.5 4.1 4.8 5.3 5.5 6.0 6.8 6.7 7.1 7.3 7.2 7.3 7.4 7.4 7.1 7.3 7.5 7.4 7.3 7.3 7.2 7.0 6.6 6.2 6.0 6.3 6.5 6.5 6.5 6.4 6.4 6.5 6.7 2.5
4.7 4.9 5.0 5.0 4.9 4.7 4.5 4.3 3.8 3.9 4.0 4.6 5.5 5.4 5.8 6.2 6.9 6.9 6.8 6.2 7.2 6.7 7.2 7.3 6.8 7.1 7.5 7.5 7.2 7.2 7.2 7.2 7.1 6.9 6.7 6.5 6.3 6.4 6.3 6.1 6.0 5.5 4.3 2.4
4.9 5.0 4.9 4.8 4.7 4.6 4.5 4.6 4.6 4.6 4.9 4.9 5.1 5.4 5.2 5.2 5.2 6.4 6.5 6.5 6.5 5.6 6.2 6.5 6.7 6.7 7.3 7.0 7.4 7.4 7.2 7.2 6.5 5.6 5.7 6.1 5.1 4.9 5.2 5.1 4.7 4.4 2.7 2.6
4.8 4.8 4.8 4.8 4.9 5.0 5.5 5.6 5.5 5.3 4.8 4.9 5.0 5.0 4.9 4.8 4.9 5.1 5.7 6.6 6.7 6.2 6.0 6.2 6.0 6.5 6.5 5.9 6.2 6.3 6.9 5.8 5.9 2.9 3.3 4.4 3.9 2.9 3.1 3.2 2.8 2.7 2.1 2.1
4.8 4.9 5.0 5.4 6.0 6.2 5.8 5.5 5.4 5.1 4.9 4.8 4.7 4.6 4.5 4.6 4.5 5.0 5.5 5.8 5.9 5.6 5.7 5.7 6.2 6.2 5.8 5.9 6.1 6.1 6.1 5.5 5.3 1.9 3.3 3.9 3.4 1.8 2.2 2.5 2.6 2.5 2.4 2.0
4.7 5.1 5.9 6.4 6.4 6.2 6.0 5.7 5.5 5.3 4.9 4.7 5.0 5.1 4.7 4.8 5.0 4.8 5.2 5.3 5.5 5.5 5.5 5.5 5.4 5.6 5.4 5.5 5.7 5.8 5.8 6.0 5.0 2.9 3.1 3.3 0.9 1.5 2.0 2.2 2.2 2.3 2.3 2.2
5.5 6.3 6.4 6.4 6.3 6.2 6.0 5.7 5.5 4.9 4.8 4.9 5.2 5.4 5.4 5.3 5.4 4.9 4.5 5.1 5.4 5.7 5.8 5.6 5.7 5.8 5.7 5.4 5.4 5.7 5.7 5.7 4.6 3.3 1.2 1.3 1.4 1.8 2.2 2.3 2.3 2.3 2.2 2.4
6.2 6.1 6.1 6.1 6.3 6.4 5.6 5.6 5.4 5.0 5.4 4.8 5.3 5.7 5.7 5.9 5.9 5.3 5.0 5.3 5.7 6.2 6.2 6.1 6.0 4.4 4.8 5.2 5.3 5.0 5.5 6.0 5.8 3.9 3.0 2.9 2.4 2.4 2.4 2.4 2.9 3.2 3.3 3.3
6.1 6.1 6.1 6.2 6.1 6.0 5.2 5.9 5.6 5.0 6.0 5.0 5.4 5.6 5.9 5.9 5.8 5.9 5.9 5.8 5.7 6.0 6.3 6.2 5.2 4.8 4.5 4.4 4.2 4.1 5.4 5.1 4.2 3.5 2.7 2.9 3.0 3.2 3.3 3.7 3.8 3.7 3.8 4.0
6.0 5.9 5.9 5.9 5.7 5.5 5.3 5.5 5.0 5.2 5.8 5.4 5.6 6.0 6.1 6.2 6.0 5.9 6.2 6.2 6.0 6.1 6.0 5.2 4.6 4.6 4.3 4.4 3.9 3.9 4.0 4.5 3.8 4.1 3.8 3.3 3.8 4.0 4.1 4.2 4.3 4.4 4.4 4.7
5.6 5.6 5.7 5.3 5.1 5.1 4.9 4.9 5.0 5.0 6.2 5.5 6.0 6.2 6.3 6.2 6.1 6.3 6.4 6.0 6.0 6.0 5.5 5.3 4.8 4.6 4.4 4.5 4.1 4.2 4.4 4.3 4.2 4.5 4.5 4.8 4.9 5.0 5.0 5.1 5.1 5.3 5.3 5.3
5.5 5.3 5.2 5.0 5.0 5.1 4.9 5.1 4.9 5.4 5.9 5.6 6.5 6.3 6.4 6.5 6.4 6.5 6.7 6.6 6.5 6.1 6.4 6.1 5.6 5.2 5.1 4.9 4.3 4.8 4.9 5.1 4.9 5.1 5.3 5.6 5.7 5.8 5.8 5.9 5.8 5.8 5.8 5.8
5.2 5.1 4.9 4.9 4.8 4.9 5.0 5.1 5.3 5.4 5.5 5.9 5.5 5.8 6.2 6.4 6.3 6.3 6.4 6.3 6.6 6.8 7.0 6.8 6.1 5.5 5.3 4.9 5.1 5.3 5.3 5.6 5.7 5.7 5.9 6.0 6.1 6.2 6.1 6.0 6.2 6.2 6.0 5.9
5.1 5.0 4.9 4.8 4.8 4.9 5.0 5.1 5.2 5.2 5.5 5.6 5.5 5.5 5.4 5.4 5.7 6.0 6.2 6.2 6.6 7.1 7.3 7.0 6.4 5.9 5.8 5.6 5.7 5.5 5.6 5.8 6.0 6.0 6.1 6.1 6.1 6.4 6.4 6.3 6.3 6.3 6.3 6.3
5.0 5.0 4.9 4.8 4.9 4.9 5.2 5.4 5.2 5.4 5.7 5.5 5.4 5.5 5.8 6.0 6.1 6.2 6.6 7.0 7.2 7.3 7.4 6.9 6.3 6.2 5.9 5.6 5.4 5.5 5.8 6.1 6.2 6.3 6.3 6.3 6.4 6.5 6.5 6.5 6.4 6.4 6.3 6.3
4.8 4.8 4.9 4.9 4.7 4.8 5.2 5.1 5.5 5.8 6.0 5.9 5.7 5.7 6.0 6.5 6.6 6.7 6.7 6.8 6.9 7.1 7.0 6.4 6.3 6.3 6.2 5.9 5.8 6.0 6.0 6.1 6.3 6.5 6.6 6.5 6.3 6.4 6.5 6.7 6.6 6.5 6.5 6.5
5.0 5.1 5.1 5.0 5.1 5.1 5.2 5.4 5.5 5.7 5.9 5.7 5.6 5.9 6.3 6.6 6.9 7.1 7.1 7.1 7.0 6.8 6.7 6.6 6.4 6.1 5.9 5.6 5.8 5.9 6.2 6.3 6.3 6.4 6.6 6.7 6.6 6.5 6.5 6.6 6.7 6.8 6.6 6.7
4.9 5.0 5.3 5.2 5.5 5.5 5.4 5.6 5.8 5.7 5.7 5.4 5.4 5.8 6.0 6.2 6.6 6.9 7.1 7.2 7.2 7.1 6.9 6.7 6.4 5.9 5.8 5.7 6.0 6.2 6.3 6.4 6.5 6.4 6.5 6.8 6.8 6.9 6.8 6.7 6.7 6.8 6.7 6.7
5.3 5.2 5.2 5.3 5.5 5.6 5.9 5.8 5.6 5.6 5.4 5.3 5.6 5.7 5.9 6.2 6.4 6.6 6.9 7.1 7.1 7.0 6.8 6.7 6.6 6.2 6.3 6.1 6.0 6.3 6.3 6.3 6.5 6.7 6.7 6.6 6.6 6.6 6.7 6.5 6.5 6.6 6.7 6.7
5.5 5.3 5.0 5.1 5.4 5.8 5.5 5.0 4.8 4.7 4.6 4.7 5.3 5.8 6.1 6.1 6.2 6.5 6.6 6.9 6.9 6.9 6.9 6.9 6.6 6.3 6.3 6.2 6.2 6.3 6.2 6.2 6.1 6.2 6.3 6.4 6.5 6.7 6.9 6.8 6.6 6.7 6.5 6.5
5.4 5.3 5.1 5.3 5.2 5.1 4.9 4.2 3.9 4.1 4.7 5.1 5.5 6.1 6.3 6.4 6.2 6.3 6.3 6.5 6.7 6.9 6.8 6.8 6.6 6.6 6.2 6.3 6.3 6.3 6.1 6.2 6.2 6.1 6.2 6.2 6.3 6.3 6.5 6.6 6.7 6.6 6.4 6.3
5.2 5.5 5.2 5.1 4.9 4.5 3.6 3.6 3.8 4.8 4.9 5.4 5.6 6.0 6.4 6.5 6.2 6.2 6.2 6.4 6.5 6.5 6.5 6.9 6.7 6.3 6.6 6.6 6.3 6.4 6.2 6.1 6.2 6.2 6.2 6.2 6.3 6.2 6.2 6.4 6.3 6.4 6.4 6.1
5.1 5.2 4.9 4.6 4.1 3.8 3.9 4.2 4.8 5.1 5.5 6.0 6.0 6.3 6.4 6.3 6.4 6.4 6.2 6.3 6.1 6.1 6.2 6.1 6.0 6.1 6.5 6.7 6.5 6.5 6.5 6.4 6.3 6.3 6.4 6.4 6.3 6.5 6.1 6.0 6.1 6.2 6.4 6.2
5.4 4.8 4.3 3.9 4.0 4.2 4.4 4.7 5.1 5.4 6.0 6.4 6.5 6.4 6.2 6.0 5.7 5.9 5.9 6.3 6.6 6.3 5.6 5.1 5.7 6.1 6.2 6.7 6.7 6.7 6.8 6.7 6.6 6.5 6.5 6.5 6.4 6.5 6.5 6.0 6.0 6.0 6.1 6.2
4.5 3.9 4.1 4.1 4.2 4.4 4.8 5.0 5.3 5.5 5.9 6.3 6.1 5.7 5.6 5.6 5.7 5.8 6.1 5.8 5.8 5.6 5.2 5.6 5.6 5.9 6.2 6.6 6.6 6.6 6.6 6.5 6.5 6.4 6.3 6.3 6.4 6.5 6.5 6.5 6.2 6.3 6.2 6.2
3.8 3.9 4.2 4.3 4.5 4.6 4.9 5.2 5.2 5.5 5.8 5.8 5.8 5.7 5.5 5.5 5.8 5.4 5.5 5.7 5.8 5.9 6.2 6.0 6.1 6.2 6.3 6.6 6.7 6.6 6.7 6.7 6.6 6.7 6.6 6.5 6.5 6.6 6.7 6.7 6.6 6.4 6.3 6.2
Wind_Speed
23 25 25 25 25 27 8 3 4 2 4 3 3 5 6 8 12 9 15 9 15 11 10 11 12 15 14 10 10 10 9 5 5 6 1 1 4 3 6 3 4 3 1 3
24 25 24 21 20 19 4 3 5 1 2 6 6 14 13 10 10 15 7 11 12 15 13 14 12 8 7 10 13 9 7 4 3 3 1 3 4 4 3 1 1 3 3 4
26 24 23 21 20 17 4 3 4 2 1 2 6 11 10 10 15 10 12 14 14 17 14 12 5 8 7 10 13 20 15 6 4 3 3 2 6 7 4 3 3 4 3 8
25 23 21 20 18 16 3 2 4 3 4 5 7 10 8 8 9 6 11 5 9 7 6 10 9 12 11 10 15 7 4 4 9 15 16 20 14 14 15 6 3 3 7 7
24 20 22 21 19 17 2 3 4 5 6 9 8 12 7 6 8 6 7 9 13 10 4 5 6 6 9 1 8 9 11 6 5 9 14 23 23 14 9 9 8 13 12 8
23 21 22 21 19 9 3 3 3 2 9 6 4 2 7 8 12 6 7 11 6 9 4 2 10 14 11 9 5 7 5 2 4 5 6 2 10 10 8 4 7 2 3 3
30 25 22 19 23 12 2 2 2 3 2 4 1 3 4 7 5 5 9 7 5 5 9 3 2 2 10 12 17 14 6 4 3 4 4 5 4 5 11 10 6 7 7 4
30 26 25 20 19 20 4 3 2 3 2 4 5 9 4 10 7 3 4 4 3 11 4 3 3 3 5 10 10 19 15 2 5 4 5 4 1 3 4 4 2 5 3 4
33 31 25 30 18 13 4 4 1 4 6 6 4 4 1 4 5 7 3 4 8 5 2 3 5 5 4 7 14 10 15 15 4 3 5 3 1 2 5 3 2 1 3 4
31 29 31 28 23 26 9 3 6 5 5 4 3 2 3 2 3 3 5 8 9 10 4 4 5 3 2 4 5 7 7 5 7 6 5 2 1 6 3 3 2 2 1 4
20 20 28 31 29 28 10 1 17 4 4 3 4 3 1 4 2 2 5 3 5 6 5 3 3 4 2 4 2 2 4 3 3 2 5 3 3 3 4 4 2 2 3 4
23 20 16 14 6 12 16 4 7 6 5 5 6 6 5 7 6 2 4 4 2 1 3 3 3 4 3 2 2 4 4 4 2 4 4 4 4 5 4 4 4 3 3 5
21 23 22 16 17 15 9 2 2 3 4 3 4 3 4 3 4 4 3 2 3 3 3 3 2 7 2 3 2 0 4 2 1 3 4 5 4 4 5 6 6 4 6 7
10 11 15 19 24 22 11 3 1 3 3 4 4 1 4 8 5 2 3 3 2 4 3 3 3 3 2 2 2 2 3 1 1 5 5 5 5 5 4 6 6 7 9 9
13 4 4 7 8 4 15 10 6 3 3 3 3 3 3 5 5 6 5 5 3 3 3 4 1 1 3 2 1 2 3 4 2 4 6 5 6 4 3 5 7 11 8 7
11 16 19 15 4 1 3 3 4 19 2 4 1 2 6 7 7 10 9 6 4 3 3 1 1 2 3 3 1 5 5 4 6 5 4 6 6 6 5 6 9 9 7 10
3 6 10 15 15 13 4 3 5 16 1 3 3 3 5 6 3 4 4 4 2 3 2 3 2 2 2 2 1 6 6 8 6 4 2 6 4 6 4 7 9 12 7 8
2 4 7 8 13 12 4 3 14 5 4 4 3 4 4 9 4 4 4 3 3 5 2 1 2 1 1 3 7 6 5 6 5 9 11 10 3 7 10 6 3 7 9 7
3 4 2 3 4 3 1 2 9 17 4 3 3 3 4 7 2 1 4 2 3 2 2 2 1 2 2 6 9 8 8 4 8 3 6 8 9 14 12 8 6 7 10 7
1 3 2 3 2 7 5 4 4 6 5 4 3 2 3 3 4 3 4 2 1 2 2 2 2 3 4 6 8 7 8 8 4 3 7 3 7 7 7 7 8 8 11 10
2 3 2 2 7 3 4 4 5 4 5 3 0 2 2 2 2 2 2 1 2 3 3 2 3 2 4 6 7 8 7 8 8 10 10 10 11 11 11 12 11 9 11 11
3 4 3 2 5 4 7 2 4 5 2 3 2 2 2 2 1 2 3 1 3 2 2 3 2 3 5 7 10 10 9 8 9 9 12 12 11 12 11 11 12 12 11 10
3 4 5 4 5 12 6 6 5 5 3 2 3 3 2 2 1 1 2 4 2 0 3 2 3 4 12 15 14 15 13 8 7 9 9 11 11 11 11 13 12 12 11 11
4 5 8 4 5 1 3 4 3 3 1 3 1 2 2 2 3 1 3 2 1 4 4 3 4 15 15 15 14 14 17 14 12 12 12 11 11 11 11 11 11 9 10 11
3 4 4 2 2 2 2 2 3 2 1 2 2 1 1 2 2 0 3 6 4 2 3 3 12 17 16 16 15 16 15 14 13 12 10 12 11 10 12 10 10 10 10 10
4 6 4 1 2 3 2 1 3 1 1 1 1 1 2 3 2 4 1 2 3 4 9 11 14 16 16 16 16 15 15 14 14 12 13 13 12 12 13 11 8 10 10 11
5 2 1 2 1 3 2 1 2 2 1 2 2 5 2 3 3 4 0 3 9 12 12 10 14 15 16 15 15 15 15 15 14 14 13 13 13 12 10 12 13 9 10 11
Wind_Direction
354 349 345 343 344 349 352 298 260 12 323 221 248 231 237 244 263 242 252 254 242 229 246 239 223 227 212 180 151 167 208 200 190 190 286 103 80 144 174 187 226 223 243 128
353 349 346 343 344 358 329 268 260 41 101 268 284 272 261 277 271 276 240 245 232 256 247 250 212 202 218 172 164 190 171 215 161 139 57 52 83 28 352 50 90 202 212 145
354 351 353 2 357 354 346 295 293 327 104 347 312 325 341 349 346 341 359 322 322 320 265 238 213 208 231 199 214 207 168 184 170 223 97 76 80 22 346 304 179 127 49 131
360 358 356 357 352 345 324 255 271 11 323 20 9 8 21 345 347 331 19 342 45 348 308 327 339 354 309 69 6 309 202 158 74 66 77 82 83 56 50 70 348 35 123 98
9 4 4 356 357 354 82 339 341 358 24 355 13 8 19 319 346 311 347 356 347 24 50 333 320 338 21 48 330 5 334 109 94 65 86 83 66 43 57 53 62 82 98 87
13 12 10 14 12 22 45 358 347 80 14 350 44 19 314 304 345 280 41 345 326 15 23 99 77 89 87 46 0 353 10 300 108 135 179 338 40 7 44 66 36 47 83 83
23 29 24 27 22 25 63 24 311 47 336 40 34 314 243 284 284 266 303 1 23 354 333 287 243 96 89 44 38 36 10 24 51 112 270 71 236 58 87 89 42 38 74 74
34 28 29 29 38 46 75 14 27 103 88 253 324 327 284 307 288 313 296 10 356 296 279 284 333 355 4 22 22 20 22 29 69 109 56 152 136 26 27 29 46 23 11 342
39 41 43 41 50 54 72 48 1 90 116 347 259 321 325 333 318 329 304 316 315 316 271 42 40 30 326 340 339 9 20 30 74 93 95 83 329 357 352 178 145 4 358 327
45 46 47 49 54 57 76 46 23 83 106 287 79 8 268 294 316 247 300 343 342 351 38 56 32 36 344 24 20 333 350 1 55 36 92 105 316 301 340 64 239 1 332 284
49 49 51 55 59 56 68 335 30 109 114 262 167 205 311 325 31 0 297 358 2 357 52 69 9 52 348 74 322 21 38 29 5 5 72 28 348 349 121 206 252 204 256 254
51 43 43 44 49 60 61 54 14 53 83 194 188 202 190 176 207 184 327 152 306 286 80 40 92 34 29 190 13 340 28 144 198 136 202 241 267 187 245 174 170 227 215 263
47 46 52 58 57 65 88 127 313 45 83 347 51 331 299 225 189 186 83 322 185 24 186 146 145 79 135 53 322 317 333 163 72 40 286 249 263 277 234 202 212 229 245 263
48 60 63 66 65 64 77 80 312 77 113 92 295 334 5 314 355 150 189 159 78 103 71 79 81 96 13 192 189 132 210 67 245 266 289 306 280 233 234 240 246 268 271 251
55 30 309 295 296 15 75 80 46 74 121 164 255 306 308 343 349 38 41 68 74 34 42 50 73 123 84 357 82 349 187 201 107 247 221 179 251 243 232 223 249 270 262 271
58 57 51 42 22 102 95 20 15 20 43 94 53 273 349 341 359 27 25 28 59 74 95 139 313 251 95 83 76 256 236 239 188 244 195 212 256 265 227 234 251 251 256 258
23 31 30 39 54 68 78 160 284 328 70 78 25 350 7 339 358 18 3 23 48 83 117 59 121 2 84 93 8 266 246 236 245 234 90 291 191 244 209 218 255 276 267 253
358 22 18 50 97 99 57 336 12 63 88 48 57 312 9 4 355 344 3 3 23 19 145 53 55 327 72 34 291 278 264 259 251 238 213 240 275 285 267 228 246 273 270 265
288 313 67 78 42 45 284 336 53 55 68 99 67 28 301 358 2 330 337 26 48 244 60 12 354 298 63 254 284 290 283 220 270 271 229 245 241 266 271 257 255 242 272 263
30 40 56 16 325 312 342 5 22 22 11 32 89 156 301 4 353 324 340 10 58 54 282 323 57 253 275 268 248 251 272 262 180 306 297 258 260 257 264 249 256 245 267 275
46 48 82 257 325 48 34 42 41 342 23 26 350 156 307 355 17 292 73 255 319 57 290 82 336 304 264 287 281 271 262 253 234 231 254 260 262 274 278 277 265 257 255 254
108 121 97 34 26 34 63 356 341 42 299 333 15 313 228 300 154 32 335 81 28 286 306 62 332 254 269 310 300 293 289 267 262 239 249 258 254 252 253 262 265 261 256 259
46 49 49 36 324 37 57 342 319 342 346 352 346 325 357 326 355 355 9 31 255 213 33 255 235 289 337 341 334 326 324 278 265 271 256 259 261 259 248 257 256 258 257 256
62 59 28 72 355 308 187 201 225 267 278 339 359 288 333 328 348 6 37 234 44 13 13 288 317 334 332 333 328 327 324 317 304 290 286 274 271 273 265 256 259 258 255 260
74 58 60 61 238 250 243 279 306 253 285 322 320 301 339 323 333 19 310 355 346 215 315 292 327 327 329 329 327 324 321 320 314 310 300 290 282 274 275 265 260 250 256 257
72 54 74 300 45 309 337 246 267 283 301 236 167 310 9 25 333 12 27 4 279 318 323 321 319 322 325 325 323 320 320 317 313 309 306 303 299 291 287 289 269 264 256 261
54 1 9 112 110 209 249 213 271 325 6 16 9 35 304 299 345 6 61 341 317 317 315 316 317 318 321 320 320 321 324 323 320 317 315 311 310 307 297 294 296 283 268 261